TimeMDT,TemperatureF,Dew PointF,Humidity,Sea Level PressureIn,VisibilityMPH,Wind Direction,Wind SpeedMPH,Gust SpeedMPH,PrecipitationIn,Events,Conditions,WindDirDegrees,DateUTC
12:53 AM,18.0,3.9,54,30.25,10.0,Variable,3.5,-,N/A,,Clear,0,2012-10-07 06:53:00
1:53 AM,18.0,6.1,60,30.23,10.0,Calm,Calm,-,N/A,,Clear,0,2012-10-07 07:53:00
2:53 AM,16.0,5.0,62,30.24,10.0,Calm,Calm,-,N/A,,Clear,0,2012-10-07 08:53:00
3:53 AM,16.0,3.9,59,30.22,10.0,Calm,Calm,-,N/A,,Clear,0,2012-10-07 09:53:00
4:53 AM,12.0,-0.0,59,30.24,10.0,ENE,6.9,-,N/A,,Clear,70,2012-10-07 10:53:00
5:53 AM,10.9,-0.0,61,30.25,10.0,Calm,Calm,-,N/A,,Clear,0,2012-10-07 11:53:00
6:53 AM,12.0,3.0,67,30.29,10.0,Calm,Calm,-,N/A,,Clear,0,2012-10-07 12:53:00
7:53 AM,15.1,3.0,59,30.31,10.0,Calm,Calm,-,N/A,,Clear,0,2012-10-07 13:53:00
8:53 AM,23.0,3.0,42,30.30,10.0,SSE,3.5,-,N/A,,Clear,160,2012-10-07 14:53:00
9:53 AM,28.9,7.0,40,30.29,10.0,SSW,4.6,-,N/A,,Clear,200,2012-10-07 15:53:00
10:53 AM,37.0,9.0,31,30.24,10.0,Variable,3.5,-,N/A,,Clear,0,2012-10-07 16:53:00
11:53 AM,41.0,12.0,31,30.21,10.0,ESE,3.5,-,N/A,,Clear,120,2012-10-07 17:53:00
12:53 PM,44.1,12.0,27,30.19,10.0,Variable,4.6,-,N/A,,Clear,0,2012-10-07 18:53:00
1:53 PM,48.9,12.9,24,30.13,10.0,South,6.9,-,N/A,,Clear,180,2012-10-07 19:53:00
2:53 PM,51.1,12.9,22,30.10,10.0,South,6.9,-,N/A,,Clear,180,2012-10-07 20:53:00
3:53 PM,53.1,10.0,18,30.08,10.0,SW,9.2,-,N/A,,Clear,230,2012-10-07 21:53:00
4:53 PM,54.0,9.0,17,30.08,10.0,SSW,8.1,-,N/A,,Clear,200,2012-10-07 22:53:00
5:53 PM,54.0,8.1,16,30.07,10.0,Variable,5.8,-,N/A,,Clear,0,2012-10-07 23:53:00
6:53 PM,48.9,8.1,19,30.10,10.0,NNW,8.1,-,N/A,,Clear,340,2012-10-08 00:53:00
7:53 PM,41.0,9.0,27,30.15,10.0,NNW,9.2,-,N/A,,Clear,340,2012-10-08 01:53:00
8:53 PM,35.1,10.0,35,30.16,10.0,WNW,6.9,-,N/A,,Clear,300,2012-10-08 02:53:00
9:53 PM,32.0,9.0,38,30.13,10.0,NNW,6.9,-,N/A,,Clear,330,2012-10-08 03:53:00
10:53 PM,34.0,10.0,37,30.08,10.0,NW,9.2,-,N/A,,Clear,310,2012-10-08 04:53:00
11:53 PM,30.9,8.1,38,30.08,10.0,Variable,5.8,-,N/A,,Clear,0,2012-10-08 05:53:00